Wind_Speed
16 15 14 13 18 23 24 24 24 25 26 27 29 31 32 32 33 32 32 36 36 35 38 38 37 37 36 35 35 38 39 35 31 33 32 39 42 47 50 50 50 57 51 46 56
18 17 17 17 18 19 22 23 27 30 31 32 33 33 34 36 37 37 36 38 40 38 38 41 40 41 41 39 40 41 41 32 31 34 34 34 40 44 49 50 50 52 45 49 52
20 21 21 21 22 23 24 25 27 29 31 34 36 39 39 39 39 38 41 44 45 46 45 45 44 43 43 43 42 43 38 38 37 38 37 35 41 40 48 44 46 48 43 46 45
26 26 27 27 27 28 31 31 34 34 35 36 36 37 39 44 46 46 47 48 48 48 49 51 51 50 48 48 47 47 42 42 42 44 43 39 44 43 44 42 46 45 47 42 41
29 32 33 32 33 34 34 35 37 39 40 41 41 41 41 41 41 47 52 54 54 52 51 52 53 54 55 53 53 51 49 48 46 46 44 39 45 46 45 46 45 44 40 35 41
30 31 31 33 35 37 40 43 44 44 47 47 48 48 49 46 52 49 48 52 53 54 56 55 55 53 56 58 59 57 56 53 51 48 45 43 45 48 47 48 45 47 42 37 38
28 30 33 39 40 42 44 46 50 51 51 54 57 58 57 56 60 59 59 59 58 57 56 59 57 57 56 55 57 60 61 59 53 52 46 48 48 48 48 48 48 45 43 38 36
38 38 40 43 46 49 50 54 56 58 60 62 63 66 64 62 68 66 67 67 67 66 63 62 63 62 59 58 59 59 62 64 55 55 52 53 48 48 50 47 43 42 44 39 34
43 44 49 53 55 57 59 61 62 63 65 67 70 71 72 70 70 70 71 70 71 69 68 69 68 68 70 65 63 63 64 65 60 57 58 58 49 48 50 49 47 39 42 40 36
52 54 56 58 62 64 64 66 67 68 70 70 70 71 73 75 80 82 78 78 78 80 77 74 73 75 71 72 73 66 64 61 58 60 62 61 53 51 46 49 45 39 40 39 38
61 61 62 66 67 63 63 65 68 72 72 74 78 84 80 84 85 84 88 87 86 84 82 84 85 78 71 70 67 62 63 63 61 57 60 63 59 53 47 47 43 41 42 41 39
65 63 62 61 63 66 70 72 76 82 81 82 90 99 95 96 97 96 97 99 100 96 93 93 93 79 76 76 75 70 65 59 62 57 59 59 63 55 48 48 45 42 42 41 39
59 60 62 62 65 72 75 79 86 93 99 93 92 90 77 71 70 72 71 73 85 94 94 89 94 90 88 87 84 81 73 66 62 47 58 58 61 59 51 50 49 46 44 44 41
62 63 62 67 73 76 83 94 96 84 59 23 25 25 18 21 15 8 16 22 28 42 51 45 68 81 76 81 77 80 78 71 66 69 53 66 64 61 50 49 52 49 46 46 43
62 65 70 71 77 86 94 83 58 30 9 14 7 7 8 10 7 14 20 18 17 14 21 25 30 40 48 54 51 71 67 70 69 70 56 43 65 58 57 53 48 47 48 47 47
65 68 71 78 88 91 78 50 20 18 9 13 9 8 7 10 9 7 14 17 17 23 18 17 20 33 39 42 42 51 54 52 52 63 57 53 63 68 54 53 50 50 50 50 48
69 69 76 84 88 76 50 17 18 13 10 8 9 9 12 12 7 12 10 14 20 20 10 12 17 22 23 28 48 40 47 53 51 57 57 58 52 68 58 54 53 50 52 52 49
68 72 80 89 74 56 20 17 17 15 10 9 4 12 20 13 10 2 3 3 2 10 14 19 24 16 23 25 28 45 44 61 59 58 58 70 73 68 59 54 58 54 48 53 52
68 74 84 78 59 25 28 25 23 19 15 8 11 25 18 14 14 9 6 2 4 5 20 20 18 19 26 26 26 37 51 42 51 42 42 61 66 67 39 49 59 55 55 52 55
70 77 77 60 27 23 31 27 26 24 20 18 21 24 22 19 13 9 13 12 4 8 13 17 15 20 19 17 24 34 39 50 46 43 49 47 51 71 50 50 58 58 54 56 55
73 76 58 42 22 27 25 30 26 22 21 20 21 20 21 19 16 13 15 10 6 11 12 14 10 9 13 24 27 35 43 47 53 30 29 38 46 48 45 64 63 58 61 54 54
70 63 41 35 30 22 23 24 22 23 21 23 22 25 25 22 12 13 13 14 13 14 10 7 11 11 10 12 18 30 36 51 39 58 30 40 36 43 39 56 68 66 56 44 50
67 54 36 32 28 19 20 25 30 28 27 27 29 27 29 30 29 14 13 15 16 14 7 9 9 7 11 5 18 29 37 39 47 37 41 31 30 49 38 50 68 60 60 51 46
63 48 34 25 26 24 22 26 29 31 30 30 29 29 31 29 29 25 18 13 16 9 13 8 7 6 5 6 11 24 32 40 41 40 40 41 33 47 50 56 67 55 51 42 37
61 48 33 24 22 24 26 29 33 38 33 31 23 28 35 29 23 13 14 7 9 9 12 8 8 7 8 6 2 8 29 39 43 51 38 21 25 40 43 56 49 48 48 44 42
58 51 35 23 21 22 24 29 34 36 35 30 32 31 23 21 16 3 3 1 4 12 11 9 8 10 6 8 9 5 35 26 36 44 52 45 36 37 34 38 44 45 45 44 44
56 45 34 28 24 23 26 31 36 42 31 29 35 38 13 15 9 6 5 2 8 11 10 5 4 5 10 12 14 11 28 25 27 36 36 32 29 36 32 44 47 46 45 43 41
Wind_Direction
337 321 307 285 270 272 278 280 280 279 278 275 273 271 269 268 265 263 261 260 261 254 256 255 253 251 247 245 244 245 244 246 249 250 246 243 244 245 246 247 247 245 248 246 247
330 322 314 308 301 291 282 273 270 274 276 275 274 273 271 270 270 270 267 265 262 258 255 255 253 253 254 251 248 247 247 246 249 249 247 245 247 243 242 242 247 249 245 243 253
320 315 308 303 298 293 286 281 279 276 272 268 266 269 269 267 267 267 265 264 264 263 261 260 256 252 250 250 249 248 248 250 246 247 244 243 245 239 248 246 249 254 251 246 248
321 317 311 307 303 298 293 287 285 281 276 271 267 263 262 261 270 269 265 262 262 263 263 262 260 257 255 254 251 247 246 246 245 243 241 240 241 242 242 247 248 249 253 254 253
320 317 313 308 305 302 298 292 289 287 283 280 278 277 274 269 262 264 262 261 263 261 259 257 258 259 258 258 255 249 247 247 245 246 245 242 241 244 239 242 245 249 250 249 251
317 315 311 308 306 302 298 296 294 290 287 286 285 283 281 279 269 265 259 260 258 256 261 259 256 255 254 253 254 254 250 247 248 247 246 243 242 243 243 244 242 248 250 245 246
321 314 310 308 304 303 298 296 297 294 289 284 281 280 280 275 275 270 264 258 257 256 252 255 256 254 253 255 253 254 254 253 247 251 250 250 241 242 244 243 244 245 248 248 243
318 314 311 307 305 302 299 299 297 295 291 289 285 281 277 272 272 269 265 263 260 257 254 252 251 253 253 253 253 252 252 252 251 252 252 249 241 240 243 245 246 246 247 245 245
317 313 312 310 309 307 302 297 294 291 288 284 282 282 282 279 274 267 264 263 262 259 255 252 249 248 250 252 252 251 249 251 253 256 253 250 243 243 241 244 245 243 243 242 241
319 318 315 311 310 306 300 295 293 291 289 286 283 280 277 276 276 273 270 266 263 262 260 255 254 251 245 248 247 249 251 251 252 251 257 252 246 246 243 243 243 242 242 240 242
322 320 316 312 307 307 304 300 294 291 289 285 284 281 277 273 272 271 271 266 264 261 260 260 259 251 249 250 249 252 253 250 249 250 254 252 250 245 243 242 239 238 238 237 238
324 321 317 314 311 309 306 302 296 292 290 286 281 280 276 273 271 268 264 262 264 262 261 258 255 254 254 252 248 245 243 244 244 249 248 250 246 246 240 239 238 235 235 236 234
326 324 320 315 312 309 305 302 298 294 293 289 285 284 282 277 273 269 266 260 258 258 258 262 259 253 253 253 251 248 245 241 240 242 247 244 246 245 242 238 235 234 232 233 233
326 326 321 315 316 313 310 306 305 306 305 312 317 299 310 321 308 314 286 266 256 254 250 252 255 253 249 244 241 243 244 240 235 235 238 243 242 245 240 238 234 231 233 232 234
330 328 323 322 320 320 318 319 319 332 97 337 344 327 325 306 279 310 273 273 232 233 250 262 245 242 241 238 237 236 234 237 234 232 231 229 241 234 239 233 232 233 234 232 233
329 327 328 327 329 327 330 334 37 49 1 340 11 41 6 17 28 40 249 277 250 210 227 232 233 221 223 220 214 224 221 223 229 226 224 224 235 236 230 234 232 229 228 231 232
330 332 333 333 334 336 342 59 54 27 327 3 58 64 31 360 27 294 329 287 259 257 283 249 233 237 224 224 215 220 214 213 215 217 217 221 219 232 236 234 233 231 229 229 231
335 336 337 340 342 344 17 34 49 22 6 13 25 358 29 352 337 353 340 4 30 292 274 259 254 269 228 238 231 213 210 205 217 216 216 224 227 228 232 224 231 231 227 226 228
338 340 343 347 344 36 56 45 40 40 31 33 28 16 33 30 40 29 352 156 199 247 250 251 268 262 249 247 219 206 218 214 214 220 220 226 222 224 227 214 225 229 227 223 224
341 345 351 351 7 50 38 33 33 36 29 11 8 13 19 22 20 16 358 353 281 272 253 263 251 216 243 237 222 207 211 207 197 203 213 218 220 219 208 215 223 229 230 226 224
346 351 0 5 27 39 30 26 24 28 12 9 359 349 352 357 354 345 358 1 317 292 247 229 246 243 243 237 247 221 197 214 201 217 210 201 216 206 212 217 223 223 227 229 232
352 357 360 13 32 26 17 15 14 19 359 353 345 335 335 332 341 332 332 336 304 301 277 246 241 284 289 267 228 205 193 200 204 201 193 185 204 206 206 206 217 222 223 225 223
354 358 357 12 22 13 5 359 360 355 342 339 333 332 330 326 319 309 296 310 310 297 236 203 221 264 267 345 209 218 209 204 204 199 209 198 181 190 195 218 214 219 220 224 225
353 357 354 358 8 11 3 347 344 338 340 324 323 313 317 317 307 299 296 283 289 284 260 223 216 257 298 348 210 213 206 194 200 202 189 192 201 179 195 213 208 210 209 201 201
352 355 351 346 351 353 353 352 346 344 348 334 331 328 323 331 336 314 276 284 278 213 222 229 226 243 261 250 231 220 171 195 190 184 191 200 204 172 201 215 206 204 204 205 208
350 355 347 336 334 338 342 345 344 348 340 338 328 344 346 341 335 352 315 246 224 191 209 205 232 233 226 242 236 183 177 172 181 190 192 197 220 187 194 192 185 181 190 197 205
347 354 342 335 320 325 336 345 345 344 352 335 323 326 353 354 9 39 69 48 179 183 212 218 184 233 243 235 244 239 184 174 178 189 197 193 189 206 177 174 172 179 186 193 193
Height
5832 5830 5829 5828 5827 5825 5823 5821 5820 5819 5818 5816 5815 5814 5812 5811 5810 5810 5811 5811 5810 5811 5810 5812 5812 5814 5816 5819 5820 5821 5821 5826 5832 5833 5840 5838 5838 5839 5840 5840 5841 5839 5851 5853 5845
5830 5827 5825 5823 5821 5819 5818 5817 5815 5812 5810 5808 5807 5806 5805 5804 5803 5803 5805 5802 5802 5802 5803 5801 5804 5805 5807 5810 5811 5812 5814 5823 5825 5825 5828 5831 5829 5831 5830 5833 5832 5836 5844 5845 5845
5827 5824 5821 5819 5816 5813 5811 5809 5807 5805 5803 5801 5799 5797 5795 5794 5794 5796 5793 5791 5791 5792 5793 5793 5794 5796 5797 5799 5802 5804 5809 5813 5815 5816 5819 5822 5820 5824 5822 5828 5828 5829 5835 5837 5841
5821 5818 5815 5813 5810 5807 5804 5801 5798 5795 5792 5790 5789 5788 5787 5786 5784 5782 5780 5781 5780 5780 5782 5782 5784 5786 5789 5790 5791 5792 5799 5800 5803 5805 5809 5812 5811 5814 5815 5820 5819 5823 5824 5831 5835
5818 5813 5809 5805 5802 5798 5795 5791 5787 5784 5781 5778 5776 5775 5774 5776 5777 5769 5767 5768 5769 5770 5770 5770 5770 5772 5776 5778 5779 5785 5787 5789 5793 5795 5799 5803 5804 5806 5809 5810 5812 5815 5820 5826 5827
5816 5811 5805 5800 5796 5791 5786 5780 5776 5773 5768 5765 5762 5760 5759 5762 5752 5756 5755 5753 5755 5757 5755 5757 5758 5758 5761 5764 5766 5770 5772 5778 5782 5787 5791 5794 5795 5797 5803 5803 5806 5806 5811 5818 5822
5811 5807 5801 5795 5789 5784 5778 5771 5765 5759 5755 5749 5745 5741 5741 5741 5733 5735 5736 5737 5738 5739 5742 5741 5742 5745 5747 5749 5753 5755 5757 5762 5771 5777 5782 5782 5786 5790 5792 5794 5799 5803 5805 5809 5815
5805 5800 5794 5787 5780 5774 5767 5759 5751 5745 5739 5732 5727 5720 5718 5720 5709 5713 5712 5713 5714 5718 5724 5726 5727 5729 5732 5735 5737 5740 5743 5750 5764 5765 5770 5769 5780 5784 5784 5786 5792 5796 5799 5802 5808
5795 5790 5783 5775 5768 5760 5752 5743 5735 5728 5723 5715 5707 5701 5696 5695 5689 5689 5688 5690 5690 5694 5699 5703 5706 5713 5712 5719 5720 5726 5735 5741 5748 5752 5751 5755 5772 5774 5777 5779 5782 5789 5790 5795 5800
5784 5777 5769 5759 5751 5742 5733 5724 5715 5707 5703 5696 5686 5684 5679 5673 5662 5656 5663 5666 5667 5666 5672 5680 5680 5684 5695 5701 5706 5722 5724 5731 5734 5736 5735 5743 5756 5760 5768 5772 5777 5782 5784 5788 5793
5772 5763 5753 5743 5732 5722 5714 5705 5695 5682 5680 5676 5664 5648 5652 5643 5640 5640 5633 5631 5633 5638 5648 5648 5644 5664 5686 5694 5704 5708 5705 5708 5716 5724 5723 5731 5740 5749 5756 5762 5769 5774 5777 5781 5785
5759 5748 5737 5726 5715 5704 5690 5680 5665 5652 5650 5646 5629 5607 5611 5608 5607 5608 5607 5604 5601 5609 5613 5615 5617 5656 5664 5664 5670 5678 5685 5693 5706 5709 5712 5719 5725 5734 5743 5752 5758 5765 5770 5775 5778
5745 5734 5723 5709 5698 5683 5667 5654 5636 5617 5602 5599 5592 5575 5568 5568 5567 5569 5568 5571 5577 5583 5587 5583 5603 5625 5633 5641 5646 5654 5664 5683 5692 5696 5698 5703 5709 5718 5733 5738 5747 5754 5761 5766 5771
5731 5718 5706 5694 5677 5661 5640 5618 5597 5576 5566 5559 5557 5557 5555 5553 5556 5554 5554 5558 5559 5564 5568 5571 5584 5591 5599 5607 5621 5629 5649 5668 5673 5678 5681 5689 5698 5704 5718 5726 5732 5743 5751 5758 5764
5715 5703 5688 5672 5658 5638 5614 5586 5566 5555 5561 5561 5557 5555 5553 5555 5551 5555 5551 5552 5554 5556 5559 5568 5568 5573 5578 5588 5602 5612 5632 5643 5655 5659 5669 5675 5680 5695 5701 5710 5724 5735 5743 5750 5754
5701 5688 5673 5655 5634 5609 5584 5567 5561 5561 5561 5559 5557 5554 5554 5552 5551 5549 5551 5551 5551 5551 5554 5557 5559 5562 5566 5578 5584 5598 5612 5623 5633 5640 5645 5659 5669 5682 5691 5707 5718 5723 5732 5740 5746
5691 5676 5657 5640 5619 5592 5574 5567 5564 5562 5564 5562 5559 5555 5553 5552 5551 5546 5550 5550 5549 5548 5550 5553 5554 5555 5561 5567 5576 5584 5597 5605 5611 5615 5626 5646 5658 5678 5684 5697 5704 5713 5722 5729 5736
5680 5662 5644 5625 5602 5583 5574 5571 5568 5568 5566 5564 5560 5557 5551 5550 5550 5550 5549 5548 5549 5550 5551 5552 5553 5553 5556 5559 5566 5574 5581 5585 5594 5602 5617 5634 5637 5667 5679 5682 5689 5701 5710 5718 5725
5670 5653 5635 5616 5598 5585 5581 5578 5574 5571 5569 5567 5564 5561 5558 5554 5551 5550 5546 5547 5549 5545 5548 5547 5550 5551 5552 5555 5559 5564 5567 5583 5595 5608 5614 5620 5634 5661 5662 5668 5679 5688 5697 5707 5715
5661 5646 5628 5612 5599 5591 5588 5584 5580 5576 5574 5570 5566 5563 5559 5556 5555 5552 5549 5547 5547 5546 5545 5544 5546 5547 5548 5550 5551 5556 5569 5572 5576 5589 5594 5611 5619 5638 5646 5660 5672 5680 5687 5697 5704
5653 5635 5622 5612 5605 5599 5597 5591 5586 5582 5579 5574 5569 5566 5563 5559 5556 5553 5550 5549 5546 5544 5542 5542 5542 5544 5543 5544 5546 5550 5554 5566 5576 5579 5586 5605 5612 5632 5639 5652 5662 5669 5674 5687 5696
5650 5633 5623 5619 5609 5605 5601 5596 5592 5586 5581 5575 5571 5566 5562 5559 5557 5553 5550 5547 5544 5541 5540 5538 5536 5540 5539 5537 5538 5544 5551 5559 5565 5581 5586 5592 5610 5626 5630 5635 5650 5649 5672 5680 5688
5649 5640 5629 5621 5613 5608 5604 5598 5592 5588 5582 5576 5570 5564 5559 5555 5550 5551 5548 5545 5541 5540 5538 5538 5538 5536 5537 5538 5540 5543 5545 5555 5566 5580 5581 5589 5597 5612 5620 5625 5633 5652 5663 5671 5680
5650 5639 5630 5623 5616 5609 5605 5600 5595 5589 5582 5574 5568 5562 5556 5551 5547 5543 5543 5541 5538 5538 5537 5537 5537 5536 5537 5538 5539 5541 5547 5552 5559 5567 5582 5589 5596 5603 5607 5612 5634 5643 5653 5664 5672
5647 5637 5627 5622 5616 5610 5604 5598 5593 5585 5579 5569 5564 5556 5549 5542 5538 5535 5535 5537 5536 5536 5536 5537 5536 5537 5538 5538 5538 5539 5542 5548 5553 5566 5572 5583 5590 5597 5600 5614 5625 5635 5646 5656 5665
5643 5636 5626 5621 5615 5608 5603 5598 5589 5584 5573 5566 5556 5553 5547 5541 5537 5534 5534 5534 5534 5536 5535 5537 5538 5537 5537 5538 5539 5542 5545 5548 5553 5558 5576 5581 5591 5587 5600 5609 5619 5629 5640 5650 5660
5642 5632 5622 5618 5612 5608 5601 5594 5587 5577 5573 5563 5554 5547 5546 5542 5538 5536 5535 5535 5535 5536 5536 5537 5538 5538 5538 5537 5537 5540 5545 5552 5556 5560 5575 5578 5575 5592 5598 5609 5618 5627 5637 5648 5658